STARLINK-34205

Last updated on Sat Jul 19 2025 00:02:08 GMT+0000 (Coordinated Universal Time)

1 64741U 25144T 25199.58335648 -.01529261 00000+0 -13014-1 0 9993 2 64741 53.1584 192.1625 0001372 68.9371 48.1184 15.71641756 3814
UTC large
Height (km)
Speed (km/s)
/
Latitude / Longitude
Inclination (degrees)
Orbital Period (minutes)
Azimuth
Elevation
Range (km)
Doppler Factor

Next 0 passes for location: London (51.5072 / 0.1276)

Sorry there are no passes over London.